Regional Weather Roundup
Issued by NWS

Home | Current Version | Previous Version | Text Only | Print | Product List | Glossary On
Versions: 1 2 3 4 5 6 7 8 9 10 11 12 13 14 15 16 17 18 19 20 21 22 23 24 25 26 27 28 29 30 31 32 33 34 35 36 37 38 39 40 41 42 43 44 45 46 47 48 49 50
000
ASUS44 KFWD 031403
RWRTX
NORTH TEXAS HOURLY WEATHER ROUNDUP
NATIONAL WEATHER SERVICE FORT WORTH TX
900 AM CDT SUN MAY 03 2015

NOTE: "FAIR" INDICATES FEW OR NO CLOUDS BELOW 12,000 FEET WITH NO
SIGNIFICANT WEATHER AND/OR OBSTRUCTIONS TO VISIBILITY.

TXZ118-119-031500-
DALLAS/FORT WORTH METROPLEX

CITY           SKY/WX    TMP DP  RH WIND       PRES   REMARKS
DFW AIRPORT    PTSUNNY   66  58  75 S12       30.00R
DALLAS LOVE    PTSUNNY   68  56  65 S7        30.02R
FTW MEACHAM    MOSUNNY   68  58  70 S7        30.00R
DAL-EXECUTIVE  MOSUNNY   67  57  70 S8        30.01R
FTW-ALLIANCE   PTSUNNY   68  58  70 S7        30.00R
FTW-NAS-JRB    MOSUNNY   67  58  72 S9        30.01R
FTW-SPINKS     SUNNY     66  57  72 CALM      30.03R
ARLINGTON      MOSUNNY   66  56  70 SE8       30.02R
GRAND PRAIRIE  SUNNY     64  57  77 S6        30.03R
MESQUITE       SUNNY     64  59  82 S9        30.03R
LANCASTER      MOSUNNY   65  57  75 S7        30.03S
$$

TXZ091>094-102>105-117-120-121-131>134-031500-
NORTH CENTRAL TEXAS

CITY           SKY/WX    TMP DP  RH WIND       PRES   REMARKS
SHRMAN/DENISON SUNNY     69  60  73 S13       30.02S
GAINESVILLE    SUNNY     65  58  77 S10       30.03R
BOWIE          SUNNY     65  57  73 S8        30.00S
BRIDGEPORT     MOSUNNY   67  59  74 SW8       30.02S
DECATUR        MOSUNNY   66  56  70 SW7       30.01R
DENTON         SUNNY     67  58  72 S9        30.00S
MCKINNEY       SUNNY     66  58  75 S9        30.02R
GREENVILLE     SUNNY     68  55  64 S8        30.04R
ROCKWALL       SUNNY     66  58  75 S10       30.02R
TERRELL        SUNNY     69  58  67 S13       30.04R
WAXAHACHIE     MOSUNNY   64  59  83 S9        30.03S
CLEBURNE       MOSUNNY   63  59  88 MISG        N/A
GRANBURY       MOSUNNY   67  57  70 S6        30.02S
$$

TXZ083>090-098>101-113>116-127>130-139>142-154-155-031500-
WESTERN NORTH TEXAS

CITY           SKY/WX    TMP DP  RH WIND       PRES   REMARKS
WICHITA FALLS  SUNNY     66  57  72 S18       29.96R
WF-KICKAPOO    SUNNY     68  57  69 S13G20    29.98R
VERNON         MOSUNNY   67  49  52 S16       29.96R
ABILENE        SUNNY     65  57  75 S12       30.01R
ABILENE-DYESS  CLOUDY    64  57  78 SW14      29.99R
BRECKENRIDGE   SUNNY     67  57  69 S10       29.99S
GRAHAM         SUNNY     66  58  77 S8        29.98S
MINERAL WELLS  MOSUNNY   65  57  75 SW5       30.00R
STEPHENVILLE   SUNNY     65  57  77 SW5       30.03S
COMANCHE       SUNNY     65  59  81 SW13G20   30.02S
COLEMAN        SUNNY     65  59  81 S8        30.01R
BRADY          CLOUDY    64  57  77 S13       30.00R
$$

TXZ143>147-156>162-174-175-031500-
CENTRAL TEXAS

CITY           SKY/WX    TMP DP  RH WIND       PRES   REMARKS
WACO           SUNNY     66  58  75 S8        30.03R
WACO-TSTC      SUNNY     64  59  82 S6        30.04R
WACO-MCGREGOR  SUNNY     64  55  72 S7        30.04R
HILLSBORO      SUNNY     65  57  76 S9        30.03R
CORSICANA      MOSUNNY   68  58  70 S9        30.05R
MEXIA          SUNNY     64  58  81 SE15      30.04S
HEARNE         SUNNY     64  59  83 SE5       30.06R
CAMERON        SUNNY     66  59  77 S6        30.04R
TEMPLE         SUNNY     64  55  72 S8        30.03R
KILLEEN        SUNNY     66  59  77 SW9G20    30.01R
KILLEEN-SKYLRK SUNNY     64  55  72 S6        30.01S
FORT HOOD        N/A    N/A N/A N/A S3          N/A
GATESVILLE     SUNNY     64  57  77 CALM      30.04R
HAMILTON       SUNNY     67  59  74 SW16      30.03R
LAMPASAS       SUNNY     68  60  74 S13       30.01R
$$

TXZ095>097-106>112-122>126-135>138-148>153-164>167-031500-
EAST TEXAS

CITY           SKY/WX    TMP DP  RH WIND       PRES   REMARKS
PARIS          SUNNY     66  55  68 MISG      30.05R
SULPHUR SPRNGS SUNNY     68  58  70 SW12      30.07R
MOUNT PLEASANT SUNNY     67  61  80 SW6       30.07R
GILMER           N/A    N/A N/A N/A MISG        N/A
MINEOLA        SUNNY     68  61  77 S8        30.06R
TYLER          SUNNY     67  59  75 S7        30.05R
LONGVIEW       SUNNY     68  58  70 SW10      30.06R
MARSHALL       SUNNY     69  61  76 SW5       30.09R
ATHENS         SUNNY     64  59  82 S5        30.05R
PALESTINE      SUNNY     67  60  79 SE6       30.08R
JACKSONVILLE   SUNNY     66  58  75 S7        30.09R
HENDERSON      SUNNY     67  59  75 S5        30.08R
NACOGDOCHES    SUNNY     66  59  77 S3        30.08R
LUFKIN         SUNNY     69  60  73 CALM      30.08R
$$

SUPPLEMENTAL OBSERVATIONS (CENTRAL)

CITY           SKY/WX    TMP DP  RH WIND       PRES   REMARKS
$$

SUPPLEMENTAL OBSERVATIONS (WEST)

CITY           SKY/WX    TMP DP  RH WIND       PRES   REMARKS
$$

SUPPLEMENTAL OBSERVATIONS (EAST)

CITY           SKY/WX    TMP DP  RH WIND       PRES   REMARKS
$$

SUPPLEMENTAL OBSERVATIONS ARE A COLLECTION OF AUTOMATED INSTRUMENTS
THAT ARE MAINTAINED BY A VARIETY OF FEDERAL AND STATE AGENCIES.
CERTAIN ELEMENTS...SUCH AS HUMIDITY VALUES AND SUSTAINED WIND
SPEEDS...MAY BE APPROXIMATED.




USA.gov is the U.S. government's official web portal to all federal, state and local government web resources and services.